SCP
0 0 0 0 0 0 0 0 0 0 0 0 0 0 0 0 0 0 0 0 0 0 0 0 0 0 0 0 0 1 1 1 1 1 0 0 0 0 0 0 0 0 0 0
0 0 0 0 0 0 0 0 0 0 0 0 0 0 0 0 0 0 0 0 0 0 0 0 0 0 0 0 1 1 1 1 1 1 0 0 0 0 0 0 0 0 0 0
0 0 0 0 0 0 0 0 0 0 0 0 0 0 0 0 0 0 0 0 0 0 0 0 0 0 0 1 1 1 1 1 1 1 1 0 0 0 0 0 0 0 0 0
0 0 0 0 0 0 0 0 0 0 0 0 0 0 0 0 0 0 0 0 0 0 0 0 0 1 1 1 2 2 2 1 1 1 1 0 0 0 0 0 0 0 0 0
0 0 0 0 0 0 0 0 0 0 0 0 0 0 0 0 0 0 0 0 0 0 0 1 1 1 1 2 2 2 2 1 1 1 0 0 0 0 0 0 0 0 0 0
0 0 0 0 0 0 0 0 0 0 0 0 0 0 0 0 0 0 0 0 0 0 0 1 1 1 1 2 2 2 1 1 1 1 0 0 0 0 0 0 0 0 0 0
0 0 0 0 0 0 0 0 0 0 0 0 0 0 0 0 0 0 0 0 0 0 0 0 1 1 1 1 1 1 1 1 0 0 0 0 0 0 0 0 0 0 0 0
0 0 0 0 0 0 0 0 0 0 0 0 0 0 0 0 0 0 0 0 0 0 0 0 0 0 0 0 0 0 0 0 0 0 0 0 0 0 0 0 0 0 0 0
0 0 0 0 0 0 0 0 0 0 0 0 0 0 0 0 0 0 0 0 0 0 0 0 0 0 0 0 0 0 0 0 0 0 0 -0 -0 -0 0 0 0 0 0 0
0 0 0 0 0 0 0 0 0 0 0 0 0 0 0 0 0 0 0 0 0 0 0 0 0 0 0 0 0 0 0 0 0 0 -0 -0 -0 0 0 0 0 0 0 0
0 0 0 0 0 0 0 0 0 0 0 0 0 0 0 0 0 0 0 0 0 0 -0 -0 -0 0 0 0 0 0 0 0 0 0 0 0 0 0 0 0 0 0 0 0
0 0 0 0 0 0 0 0 0 0 0 0 0 0 0 0 0 0 0 0 0 0 -0 -0 -0 -0 0 0 0 0 0 0 0 0 0 0 0 0 0 0 0 0 0 0
0 0 0 0 0 0 0 0 0 0 0 0 0 0 0 0 0 0 0 0 0 0 0 0 -0 -0 0 0 0 0 0 0 0 0 0 0 0 0 0 0 0 0 0 0
0 0 0 0 0 0 0 0 0 0 0 0 0 0 0 0 0 0 0 0 0 0 0 0 0 0 0 0 0 0 0 0 0 0 0 0 0 0 0 0 0 0 0 0
0 0 0 0 0 0 0 0 0 0 0 0 0 0 0 0 0 0 0 0 0 0 0 0 0 0 0 0 0 0 0 0 0 0 0 0 0 0 0 0 0 0 0 0
0 0 0 0 0 0 0 0 0 0 0 0 0 0 0 0 0 0 0 0 0 0 0 0 0 0 0 0 0 0 0 0 0 0 0 0 0 0 0 0 0 0 0 0
0 0 0 0 0 0 0 0 0 0 0 0 0 0 0 0 0 0 0 0 0 0 0 0 0 0 0 0 0 0 0 0 0 0 0 0 0 0 0 0 0 0 0 0
0 0 0 0 0 0 0 0 0 0 0 0 0 0 0 0 0 0 0 0 0 0 0 0 0 0 0 0 0 0 0 0 0 0 0 0 0 0 0 0 0 0 0 0
0 0 0 0 0 0 0 0 0 0 0 0 0 0 0 0 0 0 0 0 0 0 0 0 0 0 0 0 0 0 0 0 0 0 0 0 0 0 0 0 0 0 0 0
0 0 0 0 0 0 0 0 0 0 0 0 0 0 0 0 0 0 0 0 0 0 0 0 0 0 0 0 0 0 0 0 0 0 0 0 0 0 0 0 0 0 0 0
0 0 0 0 0 0 0 0 0 0 0 0 0 0 0 0 0 0 0 0 0 0 0 0 0 0 0 0 0 0 0 0 0 0 0 0 0 0 0 0 0 0 0 0
0 0 0 0 0 0 0 0 0 0 0 0 0 0 0 0 0 0 0 0 0 0 0 0 0 0 0 0 0 0 0 0 0 0 0 0 0 0 0 0 0 0 0 0
0 0 0 0 0 0 0 0 0 0 0 0 0 0 0 0 0 0 0 0 0 0 0 0 0 0 0 0 0 0 0 0 0 0 0 0 0 0 0 0 0 0 0 0
0 0 0 0 0 0 0 0 0 0 0 0 0 0 0 0 0 0 0 0 0 0 0 0 0 0 0 0 0 0 0 0 0 0 0 0 0 0 0 0 0 0 0 0
0 0 0 0 0 0 0 0 0 0 0 0 0 0 0 0 0 0 0 0 0 0 0 0 0 0 0 0 0 0 0 0 0 0 0 0 0 0 0 0 0 0 0 0
0 0 0 0 0 0 0 0 0 0 0 0 0 0 0 0 0 0 0 0 0 0 0 0 0 0 0 0 0 0 0 0 0 0 0 0 0 0 0 0 0 0 0 0
Wind_Speed
3 4 1 3 3 2 2 2 4 5 2 2 4 7 10 9 8 9 9 8 8 9 9 9 12 14 11 10 10 12 11 10 9 6 5 4 3 3 3 3 4 5 6 6
5 4 5 2 1 2 1 2 4 4 2 1 4 7 6 7 8 10 11 10 9 9 10 8 8 12 15 15 13 12 12 10 10 6 4 2 3 2 2 2 3 5 5 5
1 4 4 3 3 1 2 3 4 4 3 3 3 6 5 7 6 13 15 13 11 11 11 10 8 9 12 13 13 10 10 8 6 5 4 3 3 2 2 2 2 3 5 5
3 6 7 7 5 2 4 5 3 1 1 3 2 5 5 8 10 17 19 17 16 15 12 9 6 4 5 6 8 10 10 10 7 5 3 2 3 3 4 3 2 3 5 5
5 6 8 8 5 4 2 3 3 2 1 2 1 2 6 7 11 16 18 18 18 16 13 9 6 5 6 8 10 11 12 13 10 5 2 2 2 2 1 2 3 3 3 4
5 4 5 4 4 3 3 3 3 4 3 2 3 3 3 6 10 15 17 18 18 17 13 10 9 9 10 10 10 10 12 12 8 3 2 4 4 4 3 3 3 3 2 3
10 7 7 6 7 7 7 5 4 4 1 6 2 4 2 6 9 11 15 17 17 14 12 11 10 8 8 8 9 10 13 10 5 1 3 5 6 5 5 4 3 3 2 2
6 7 7 7 5 5 5 1 2 4 4 4 1 3 4 6 8 10 11 13 15 14 11 8 8 7 6 7 9 10 11 7 3 1 3 3 4 3 2 2 2 3 2 2
3 5 4 5 5 4 6 4 2 2 3 3 2 3 2 12 15 16 16 16 16 15 12 8 7 8 8 8 9 8 6 3 1 3 4 3 3 3 2 2 2 2 2 2
1 4 5 5 6 7 3 2 4 1 2 4 1 3 7 15 18 18 18 17 16 14 12 9 7 7 7 7 7 5 2 2 3 3 3 2 2 2 3 3 3 3 3 3
3 1 6 6 6 6 7 5 4 2 2 2 1 3 5 9 12 15 16 15 14 12 10 7 5 4 5 5 4 2 2 3 3 3 2 1 1 3 3 3 3 3 3 4
2 4 3 3 2 3 2 3 2 2 2 1 0 2 4 8 10 12 14 14 13 11 7 4 3 3 3 2 1 2 2 2 2 2 2 2 2 2 3 2 2 3 4 4
3 5 5 7 7 7 6 7 2 2 1 2 2 3 5 11 13 14 15 14 12 11 8 4 2 3 3 3 3 4 3 2 2 2 2 2 1 1 2 2 2 3 3 4
5 5 4 2 3 7 9 14 13 7 4 4 6 6 10 17 17 17 16 14 11 11 11 8 6 4 4 4 4 2 2 2 3 2 2 2 2 1 2 2 2 2 3 3
6 5 3 3 2 6 13 16 15 14 10 7 8 8 11 16 15 14 15 14 13 14 13 12 10 8 7 7 6 5 3 2 1 1 1 1 1 1 1 2 2 2 3 3
4 5 3 1 1 6 10 17 14 11 10 9 10 7 13 14 12 13 15 16 14 13 13 12 11 11 11 11 10 9 9 7 6 6 6 5 4 3 2 2 2 2 2 2
3 4 3 1 4 2 8 11 11 7 8 9 8 10 15 13 14 12 13 15 14 12 10 11 10 9 9 9 8 9 8 8 8 8 8 8 7 7 6 5 5 5 4 3
4 4 3 2 4 5 3 3 6 5 4 8 9 11 13 13 10 5 8 12 12 11 9 8 8 7 7 6 7 7 7 7 8 8 8 8 8 7 7 7 7 6 5 5
3 6 4 3 3 1 4 2 3 3 3 5 9 12 13 13 6 4 10 13 9 7 5 5 5 5 6 7 6 6 7 7 7 7 7 7 7 7 7 7 7 6 5 6
6 5 5 4 4 2 5 4 1 1 3 4 6 9 11 10 7 8 12 13 10 7 4 4 4 5 5 6 5 6 6 6 6 6 5 5 6 6 6 6 6 5 5 5
4 5 4 3 2 4 6 3 1 2 3 6 5 6 5 4 4 10 13 9 7 5 3 2 3 3 4 4 4 5 5 5 4 4 4 5 5 5 5 5 5 5 5 6
3 2 2 3 2 5 4 2 3 5 4 4 4 4 4 7 8 8 8 8 7 5 4 3 3 4 4 3 3 4 4 4 3 3 4 4 5 5 4 5 5 5 6 6
5 6 5 6 5 5 3 4 4 3 3 4 4 5 5 6 6 7 7 8 7 6 4 3 3 4 4 3 1 2 3 2 1 2 3 3 4 4 4 4 5 4 5 5
3 3 3 2 4 4 3 3 3 3 5 5 5 6 4 4 6 7 7 7 7 6 5 4 4 4 5 4 3 3 3 1 1 1 2 2 3 3 3 3 3 3 4 4
6 6 4 4 4 2 4 5 4 3 3 3 3 3 3 4 5 5 6 7 6 6 5 4 4 5 6 5 5 4 3 2 2 1 2 2 3 3 3 2 2 2 2 2
7 9 9 8 9 7 7 5 4 3 2 1 2 4 4 4 5 6 6 5 6 7 6 6 6 6 7 6 6 5 3 3 3 2 1 1 2 2 2 2 2 1 1 4
Wind_Direction
32 50 328 249 215 211 175 205 260 268 330 350 303 297 303 332 348 330 317 304 296 289 282 258 226 213 207 203 192 189 184 174 165 159 163 169 189 189 194 198 191 188 185 179
26 348 292 289 87 88 121 267 273 287 358 338 312 298 324 354 6 348 335 321 307 303 301 290 250 219 206 202 195 187 185 175 173 172 155 147 143 157 170 170 183 187 183 178
353 306 333 58 44 0 279 242 262 277 347 34 345 316 354 345 4 4 1 348 334 317 307 299 278 236 214 201 189 178 169 155 149 128 108 83 78 79 118 177 185 183 177 175
19 359 33 42 17 351 299 315 276 268 3 307 15 298 325 337 347 2 358 352 345 335 323 308 294 257 213 184 150 136 130 114 98 97 122 163 182 191 204 195 183 166 172 174
5 14 41 36 350 2 330 359 38 45 128 321 318 234 312 343 356 353 351 351 348 344 345 352 18 59 78 92 102 109 109 101 93 93 135 211 222 200 177 175 178 169 165 170
3 7 44 3 343 13 355 10 36 47 78 279 238 175 336 0 346 342 347 350 351 353 3 19 38 54 64 74 86 95 95 89 90 98 175 209 205 190 180 193 186 168 148 158
347 1 7 1 5 1 27 37 359 336 344 244 217 137 84 4 353 347 343 345 349 357 10 24 35 46 58 70 81 84 85 81 78 108 222 215 205 191 190 192 187 162 156 169
358 329 2 11 14 337 348 53 201 250 244 279 312 146 125 23 353 347 345 343 346 354 3 21 39 45 55 67 81 83 85 84 72 276 254 223 196 178 181 185 177 178 178 172
348 295 343 19 17 32 3 352 295 249 272 265 260 91 49 1 357 352 349 348 345 346 349 2 29 49 54 63 71 74 79 89 181 226 229 207 192 172 167 173 183 185 181 173
37 299 322 337 24 31 43 320 12 1 256 246 242 70 3 350 346 341 342 340 336 338 341 352 12 36 52 59 67 63 55 262 238 223 208 198 199 178 169 172 188 195 190 174
47 43 329 13 31 351 354 3 353 295 252 261 177 82 23 341 335 333 332 332 331 328 324 339 356 13 47 53 48 27 277 247 223 202 179 147 143 161 171 178 184 184 181 179
57 90 346 329 355 10 349 322 302 304 322 312 116 91 0 346 339 338 335 337 338 331 326 339 337 340 24 25 338 292 276 253 211 176 142 130 136 154 164 175 187 188 189 189
63 65 16 356 356 358 350 344 322 258 296 1 31 35 360 356 354 351 347 345 349 357 8 23 9 339 329 301 271 253 228 189 180 157 142 148 172 195 205 211 216 208 205 201
90 75 92 69 344 344 360 18 27 31 28 31 21 349 353 354 350 352 353 351 4 20 27 32 31 15 350 337 319 281 230 190 178 179 167 173 201 225 242 237 228 226 225 221
74 85 88 127 108 43 33 21 25 35 28 19 355 353 354 346 343 351 358 1 15 24 27 31 31 27 23 23 25 35 44 39 48 66 29 354 347 347 296 279 278 261 241 233
59 106 118 182 256 36 30 16 13 21 16 4 359 6 344 339 349 1 5 8 14 16 17 20 23 24 26 28 31 38 41 42 51 52 39 24 22 24 6 343 344 336 311 279
66 109 109 331 312 30 19 358 355 5 26 3 356 342 334 343 347 352 1 4 6 4 6 11 14 16 18 21 26 32 29 35 47 48 41 35 34 33 25 24 29 20 9 3
118 100 103 67 51 53 287 299 341 350 35 13 350 343 347 340 320 320 8 3 354 352 358 2 4 9 9 14 23 28 29 34 40 40 35 29 30 30 25 29 28 19 16 19
101 125 106 96 92 334 312 339 1 345 334 0 349 348 351 338 332 2 1 355 341 336 343 349 355 360 5 10 11 30 27 25 31 28 26 22 25 29 27 26 20 15 20 23
36 67 102 108 116 211 255 272 293 200 319 336 342 341 346 358 23 337 331 332 327 331 339 352 353 359 4 354 2 30 21 22 17 10 14 17 25 31 27 21 17 14 20 21
19 31 69 113 147 246 245 270 124 133 264 303 310 314 330 342 268 282 304 314 316 316 323 355 3 347 330 334 6 21 12 5 350 2 20 23 23 31 31 30 25 22 25 28
168 138 159 136 158 246 238 156 163 209 241 270 279 287 300 294 290 299 313 328 336 334 329 345 347 328 318 328 3 4 345 327 343 19 30 24 19 23 27 34 31 30 29 31
187 187 184 186 212 239 221 212 225 207 246 267 270 289 298 298 308 319 325 333 335 332 324 326 330 321 320 320 308 316 306 315 338 12 18 12 16 20 21 30 29 30 31 30
244 147 140 221 263 258 249 251 262 240 243 267 279 287 292 298 307 320 327 333 336 332 327 324 328 321 312 311 294 265 281 279 266 313 336 356 8 6 12 24 28 34 30 24
213 163 163 220 249 259 263 244 247 267 271 292 317 311 314 323 326 322 322 324 327 325 322 326 317 299 290 295 291 275 254 200 220 269 312 347 358 354 356 18 25 21 21 4
193 172 172 205 202 182 216 227 223 221 232 294 334 341 339 336 324 324 318 314 318 320 321 326 321 303 292 288 281 275 240 198 202 239 279 342 354 350 358 9 12 355 310 328